Huvudsida
METAR-TAF:

METAR-TAF

Flygplatser :

Oljeplattform

Statfjord A, Norge

latitud: 61-15N, longitud: 1-51E, höjd: 10 m

Aktuellt väderrapport

Denna rapport gjordes för 37 minuter sedan, klockan 22:50 UTC
Vind 54 kt från sydväst
Temperatur 7°C
Fuktighet 61%
Tryck 1002 hPa

METAR: ENSF 222250Z AUTO 23054KT //// BKN030/// 07/00 Q1002 W///S6

Tid: 00:27 (23:27 UTC)


TAF: saknas

Aktuella väderrapporter och prognoser från 4000 flygplatser (METAR- och TAF-rapporter).

De tillgängliga stationerna syns som gula och röda prickar på kartan.

För musen över prickarna för att se namnen på stationerna.

Klicka sedan för att få väderrapporter och prognoser.

För att ändra kartan: Klicka på de gröna knapparna med ett svart kors på för att zooma in; den gröna knappen med ett streck på för att zooma ut; eller på de gröna pilarna för angränsande kartor.


METAR-TAF: